Temp
8 8 10 12 9 8 8 7 8 10 8 6 6 6 7 6 5 3 2 1 -0 -2 -3 -5 -6 -7 -7 -6 -6 -5 -3 -3 -2 -2 1 3 4 5 6 7 8 8 8 8
8 9 10 8 7 6 8 8 9 9 7 6 6 6 6 6 5 3 1 -0 -2 -3 -4 -5 -6 -7 -7 -7 -7 -6 -4 -3 -3 -2 -0 -0 3 4 5 5 7 7 7 7
9 10 7 6 8 7 8 8 8 6 6 7 5 7 6 3 3 1 -0 -1 -2 -4 -5 -6 -6 -7 -8 -8 -7 -7 -5 -4 -3 -2 -0 -0 2 3 4 5 6 6 5 7
8 6 6 7 7 5 4 6 5 4 3 6 3 5 7 4 2 1 1 -1 -3 -5 -6 -6 -7 -8 -8 -8 -7 -6 -5 -4 -4 -2 -1 -0 -0 1 3 4 4 4 5 7
9 7 6 4 7 5 5 5 4 3 1 2 4 2 7 4 3 3 1 -2 -4 -5 -6 -7 -8 -9 -9 -9 -7 -6 -5 -5 -4 -3 -2 -1 -0 0 1 2 4 3 6 6
7 4 4 5 5 4 4 3 4 2 2 3 4 4 8 5 2 2 -0 -3 -5 -7 -7 -7 -8 -9 -9 -9 -8 -7 -6 -5 -4 -3 -2 -1 -1 -1 1 2 4 6 6 6
6 6 4 2 4 4 4 5 9 8 7 8 3 3 6 1 -1 -2 -4 -7 -8 -7 -7 -8 -8 -9 -9 -9 -9 -8 -7 -6 -5 -3 -2 -1 -1 -1 -0 1 3 4 4 5
9 9 4 2 2 2 3 3 7 6 8 8 5 2 6 -2 -4 -5 -6 -8 -6 -7 -8 -8 -9 -9 -10 -10 -9 -9 -8 -7 -6 -4 -2 -2 -2 -1 -0 1 2 3 3 4
7 7 2 1 1 2 3 5 2 2 1 1 6 6 1 -1 -2 -3 -5 -6 -6 -7 -8 -9 -10 -10 -10 -11 -10 -10 -9 -7 -6 -4 -3 -2 -2 -2 -0 2 2 3 2 3
3 6 4 1 0 1 2 2 3 2 5 6 9 7 6 -0 -2 -3 -6 -6 -7 -8 -9 -10 -10 -11 -11 -11 -11 -10 -9 -8 -6 -5 -4 -3 -2 -2 -1 -0 1 2 2 3
2 2 4 1 0 3 1 2 2 2 2 4 5 8 -0 -3 -5 -6 -7 -7 -8 -9 -9 -10 -11 -11 -11 -11 -10 -10 -9 -8 -7 -6 -6 -5 -4 -3 -2 -2 -1 0 1 1
3 2 5 5 -2 -1 1 2 3 4 3 2 1 3 -3 -5 -6 -7 -7 -8 -9 -10 -10 -12 -12 -12 -11 -11 -11 -10 -10 -9 -8 -7 -7 -5 -5 -5 -4 -4 -3 -2 -1 -0
1 5 7 5 0 -0 -1 -0 0 -1 -0 3 3 7 -5 -6 -6 -7 -9 -9 -10 -10 -12 -12 -12 -12 -11 -12 -11 -11 -10 -10 -9 -8 -7 -7 -6 -6 -5 -5 -4 -4 -3 -1
1 2 4 9 5 1 0 -1 -1 1 2 4 2 4 2 -1 -4 -6 -9 -10 -11 -12 -12 -13 -12 -12 -12 -11 -11 -11 -11 -10 -10 -9 -8 -8 -7 -7 -6 -6 -5 -5 -4 -3
1 2 -1 1 0 -4 -1 -0 -1 -1 1 2 2 -3 0 -1 -5 -8 -11 -11 -11 -12 -12 -12 -12 -12 -11 -11 -11 -11 -11 -10 -10 -9 -9 -9 -8 -7 -6 -5 -5 -5 -4 -4
-0 2 -2 -1 -5 -6 -4 -2 -3 -2 -1 -2 -3 -2 -1 -7 -9 -10 -9 -11 -11 -12 -12 -11 -11 -11 -11 -11 -11 -10 -10 -9 -9 -8 -8 -8 -7 -6 -5 -5 -4 -4 -4 -5
-0 1 1 5 -2 -1 2 -2 -3 -2 -2 -1 -0 2 -4 -5 -6 -6 -8 -10 -11 -11 -11 -10 -10 -10 -10 -10 -10 -9 -9 -8 -7 -7 -7 -6 -5 -4 -4 -5 -4 -4 -4 -3
-1 -1 1 3 2 9 3 -6 -3 -2 -2 -3 -2 -2 -3 -3 -5 -5 -6 -9 -9 -9 -9 -9 -10 -10 -9 -9 -8 -8 -7 -7 -7 -6 -5 -5 -5 -5 -5 -5 -5 -4 -3 -3
-1 1 2 2 4 7 4 -4 -3 -0 6 -1 -2 -2 -4 -6 -6 -4 -5 -6 -7 -8 -8 -8 -8 -7 -7 -7 -7 -6 -6 -6 -6 -5 -5 -5 -5 -5 -5 -5 -5 -4 -4 -4
-1 -1 1 1 3 9 7 -0 -3 -2 7 -1 -1 -3 -6 -5 2 1 -2 -4 -5 -6 -6 -6 -6 -5 -5 -5 -5 -5 -5 -5 -5 -5 -5 -5 -5 -5 -5 -5 -4 -4 -4 -4
-2 -1 -0 1 3 6 2 -0 -1 7 7 -2 -1 -1 -5 -1 2 3 -1 -3 -3 -4 -4 -4 -4 -4 -4 -4 -5 -5 -5 -5 -5 -5 -5 -5 -6 -5 -5 -5 -5 -5 -5 -5
0 -0 -0 1 2 6 -1 -1 5 5 0 0 -1 0 -1 -0 1 1 0 -1 -2 -2 -3 -3 -3 -3 -3 -3 -4 -4 -4 -4 -5 -5 -5 -5 -5 -5 -5 -5 -5 -5 -5 -5
0 3 4 3 5 1 -1 1 3 3 3 2 1 2 2 1 1 1 0 -1 -1 -2 -2 -2 -2 -2 -3 -3 -4 -4 -4 -4 -4 -4 -4 -5 -5 -5 -5 -5 -5 -5 -5 -5
-0 1 2 1 3 1 2 5 4 4 4 4 3 4 3 2 1 1 -0 -1 -1 -1 -1 -1 -2 -2 -2 -3 -3 -4 -4 -4 -4 -4 -4 -4 -4 -4 -4 -4 -4 -4 -4 -4
2 0 2 2 3 4 5 6 7 6 5 4 3 4 5 3 2 2 1 0 0 -0 -1 -1 -0 -1 -1 -2 -3 -3 -3 -4 -4 -4 -4 -4 -4 -4 -4 -5 -5 -4 -5 -5
-0 2 4 7 7 7 8 7 7 6 6 6 5 4 3 4 4 3 2 2 1 1 1 0 -0 -1 -1 -1 -2 -2 -3 -3 -4 -4 -4 -4 -4 -4 -4 -4 -4 -5 -5 -5
Height
1486 1483 1474 1466 1477 1478 1477 1476 1468 1456 1462 1465 1456 1451 1450 1453 1454 1460 1461 1462 1461 1459 1457 1455 1451 1447 1441 1437 1432 1427 1424 1423 1423 1421 1421 1420 1420 1426 1426 1429 1430 1434 1435 1438
1485 1475 1473 1479 1481 1481 1475 1469 1458 1455 1462 1464 1452 1443 1443 1446 1450 1455 1459 1460 1458 1454 1454 1452 1448 1444 1439 1433 1429 1424 1421 1419 1419 1418 1418 1417 1417 1417 1421 1424 1428 1430 1432 1435
1476 1472 1479 1480 1476 1476 1470 1465 1459 1464 1461 1452 1454 1432 1436 1449 1451 1456 1458 1457 1456 1454 1451 1449 1446 1442 1436 1431 1425 1420 1417 1415 1414 1413 1414 1414 1413 1416 1419 1422 1424 1427 1424 1428
1475 1477 1478 1477 1474 1479 1478 1468 1470 1468 1469 1448 1464 1440 1430 1442 1450 1454 1456 1457 1455 1452 1449 1446 1442 1438 1433 1427 1421 1417 1413 1411 1410 1409 1410 1410 1409 1412 1415 1417 1418 1419 1420 1421
1468 1474 1475 1480 1473 1479 1471 1471 1468 1469 1472 1471 1457 1464 1422 1444 1445 1446 1453 1456 1454 1451 1446 1441 1438 1433 1429 1424 1418 1414 1410 1408 1406 1405 1405 1406 1407 1409 1409 1412 1412 1413 1415 1417
1473 1479 1478 1476 1478 1478 1476 1469 1465 1471 1468 1460 1448 1451 1419 1430 1446 1449 1452 1455 1451 1448 1443 1439 1435 1431 1426 1421 1415 1411 1408 1406 1403 1401 1401 1402 1405 1407 1407 1408 1407 1409 1410 1410
1471 1471 1477 1480 1477 1476 1475 1465 1437 1435 1437 1424 1456 1454 1426 1447 1453 1456 1455 1453 1449 1445 1440 1436 1432 1428 1424 1420 1415 1411 1407 1404 1401 1398 1398 1400 1403 1404 1405 1405 1404 1406 1407 1410
1458 1455 1474 1481 1481 1481 1478 1476 1455 1452 1428 1426 1444 1449 1425 1453 1455 1455 1453 1450 1445 1442 1438 1434 1430 1427 1423 1419 1415 1411 1407 1403 1399 1396 1396 1399 1401 1402 1402 1402 1403 1405 1406 1408
1463 1459 1478 1481 1483 1483 1478 1469 1481 1478 1481 1476 1432 1428 1445 1450 1451 1451 1448 1446 1442 1439 1435 1432 1429 1426 1423 1419 1414 1410 1405 1400 1396 1395 1396 1397 1398 1399 1399 1400 1401 1402 1403 1404
1476 1464 1472 1481 1484 1484 1482 1482 1473 1480 1456 1440 1408 1415 1418 1443 1449 1446 1446 1443 1440 1436 1434 1431 1429 1426 1423 1418 1414 1410 1405 1400 1397 1396 1397 1397 1397 1398 1399 1400 1402 1403 1403 1403
1478 1479 1471 1480 1480 1470 1481 1475 1477 1476 1475 1456 1439 1407 1440 1447 1449 1446 1444 1441 1438 1436 1434 1432 1430 1426 1422 1418 1414 1410 1406 1401 1398 1397 1397 1397 1397 1396 1397 1400 1401 1401 1402 1401
1477 1476 1462 1459 1480 1481 1479 1474 1469 1457 1467 1471 1474 1438 1444 1447 1447 1445 1442 1439 1437 1437 1435 1433 1430 1427 1422 1418 1415 1411 1406 1403 1400 1399 1397 1397 1397 1397 1399 1399 1399 1399 1399 1400
1479 1466 1452 1453 1477 1480 1479 1478 1476 1478 1479 1460 1456 1412 1446 1446 1442 1441 1440 1438 1437 1436 1435 1434 1430 1427 1424 1420 1417 1413 1409 1406 1404 1402 1401 1401 1401 1401 1401 1401 1401 1401 1402 1402
1480 1473 1464 1438 1452 1470 1472 1474 1478 1472 1462 1447 1449 1426 1431 1436 1437 1438 1439 1438 1437 1437 1436 1434 1430 1428 1425 1422 1419 1416 1413 1410 1408 1407 1406 1406 1405 1405 1405 1405 1405 1406 1408 1410
1481 1472 1476 1466 1466 1477 1469 1466 1471 1471 1460 1451 1436 1455 1431 1434 1437 1438 1437 1437 1437 1437 1434 1432 1430 1429 1426 1424 1422 1420 1418 1416 1414 1413 1412 1412 1412 1412 1412 1413 1413 1414 1416 1418
1482 1470 1480 1468 1475 1481 1472 1464 1468 1467 1464 1461 1457 1449 1434 1437 1437 1436 1436 1435 1434 1433 1432 1432 1431 1430 1428 1426 1425 1424 1423 1421 1421 1421 1421 1421 1421 1422 1422 1423 1424 1425 1426 1427
1480 1474 1471 1444 1467 1464 1448 1446 1455 1452 1452 1447 1443 1427 1435 1436 1435 1434 1434 1434 1434 1433 1433 1433 1432 1431 1431 1430 1430 1429 1428 1428 1428 1428 1429 1429 1430 1431 1431 1431 1432 1433 1434 1438
1478 1479 1475 1456 1455 1419 1424 1443 1442 1440 1436 1436 1434 1432 1432 1433 1432 1431 1432 1433 1433 1433 1433 1433 1433 1433 1432 1433 1433 1433 1434 1434 1433 1432 1433 1435 1436 1437 1438 1439 1440 1440 1441 1443
1478 1474 1467 1463 1448 1418 1420 1440 1439 1433 1411 1414 1422 1429 1430 1432 1432 1430 1430 1432 1433 1433 1434 1435 1435 1436 1437 1438 1438 1439 1440 1440 1440 1440 1441 1442 1443 1444 1445 1445 1446 1447 1448 1448
1477 1477 1472 1469 1454 1411 1408 1423 1427 1428 1409 1407 1414 1420 1426 1432 1425 1424 1427 1430 1432 1434 1436 1437 1438 1440 1440 1441 1442 1443 1444 1445 1445 1446 1446 1448 1449 1449 1450 1450 1451 1451 1452 1453
1474 1474 1471 1468 1453 1419 1415 1420 1425 1412 1408 1407 1409 1413 1421 1424 1421 1420 1424 1429 1433 1435 1436 1438 1440 1441 1443 1444 1445 1446 1447 1448 1449 1450 1451 1451 1452 1453 1454 1454 1455 1455 1456 1456
1457 1460 1463 1461 1455 1426 1418 1424 1414 1402 1402 1403 1408 1410 1413 1417 1419 1422 1425 1428 1430 1433 1436 1438 1440 1442 1444 1445 1447 1448 1449 1450 1451 1453 1454 1455 1456 1457 1458 1458 1458 1459 1459 1460
1453 1437 1434 1437 1418 1410 1410 1405 1402 1401 1401 1401 1404 1407 1412 1416 1418 1420 1424 1428 1431 1433 1435 1437 1439 1442 1444 1446 1447 1448 1450 1451 1452 1453 1454 1455 1457 1458 1459 1459 1460 1461 1461 1461
1441 1438 1436 1432 1405 1405 1405 1404 1402 1401 1401 1401 1402 1405 1409 1413 1417 1419 1422 1425 1428 1430 1432 1435 1437 1440 1442 1444 1446 1448 1449 1451 1453 1454 1455 1456 1457 1457 1458 1459 1460 1460 1460 1460
1432 1436 1429 1420 1404 1399 1395 1395 1395 1394 1398 1400 1400 1401 1404 1409 1412 1416 1419 1421 1424 1427 1430 1432 1435 1437 1440 1443 1445 1447 1448 1450 1452 1453 1454 1456 1457 1457 1458 1458 1459 1459 1459 1460
1423 1417 1416 1399 1395 1394 1392 1392 1390 1390 1390 1393 1395 1396 1399 1404 1408 1412 1414 1418 1421 1423 1426 1428 1432 1435 1438 1440 1443 1445 1447 1448 1450 1451 1451 1452 1453 1453 1454 1454 1455 1455 1456 1456
Wind_Speed
3 5 9 3 2 5 8 10 16 17 7 10 12 21 20 18 17 14 13 12 16 20 20 19 20 21 21 20 19 19 21 18 14 20 18 14 10 11 16 22 18 18 18 21
4 8 4 2 3 8 11 15 17 6 5 16 16 21 15 14 13 13 8 11 16 19 20 19 20 20 20 20 17 17 16 16 14 21 21 15 18 15 11 13 19 17 16 20
10 3 3 3 7 10 12 12 12 13 19 11 11 12 5 1 5 7 9 9 15 17 20 20 20 20 20 19 17 16 15 12 12 18 22 18 17 11 11 11 10 9 19 21
9 4 4 7 9 2 6 3 9 15 11 5 5 6 6 6 7 8 8 12 17 16 16 17 19 20 20 19 17 15 14 11 11 15 17 16 12 10 7 6 12 12 20 19
1 3 5 3 4 2 7 13 14 9 3 9 6 3 3 4 8 8 4 14 17 16 16 17 18 19 20 18 17 15 13 11 9 10 14 13 12 12 13 13 14 14 18 19
6 0 2 2 5 6 11 10 4 1 2 3 6 2 6 3 1 1 7 15 17 16 17 16 16 19 19 17 16 15 13 10 9 6 10 11 11 13 13 13 14 17 17 18
3 4 3 1 5 3 7 8 4 3 2 3 6 6 7 4 2 3 9 15 16 15 16 17 17 18 19 19 17 16 13 10 7 4 7 9 9 10 10 11 12 15 15 17
3 4 4 1 2 1 3 4 2 7 6 11 8 6 0 3 2 6 7 13 14 15 15 15 16 17 17 18 17 16 14 11 6 1 4 7 9 9 9 8 11 13 14 14
3 2 4 4 2 0 2 2 2 3 2 4 4 5 5 3 4 10 10 13 12 14 14 14 15 15 17 18 17 16 14 11 8 3 3 6 7 9 9 11 12 12 12 12
2 4 3 4 2 1 3 6 2 3 5 7 5 6 7 2 9 13 10 13 14 14 14 13 14 16 17 16 15 14 13 11 8 3 3 3 6 8 9 12 13 12 12 12
4 1 3 3 5 4 3 3 2 1 2 4 7 5 3 2 7 12 11 13 14 14 14 14 15 16 15 14 13 13 13 11 7 4 1 1 4 6 9 11 11 12 12 11
3 2 5 1 4 0 1 3 4 3 4 4 3 8 6 3 5 10 13 13 12 12 12 12 13 14 14 14 13 12 12 11 8 7 4 3 3 5 8 10 11 13 14 14
3 3 4 3 2 2 4 5 3 3 1 7 3 5 5 5 8 8 11 11 10 10 11 12 12 13 13 13 13 11 10 9 8 7 7 8 9 10 12 13 14 16 18 21
3 3 5 5 2 1 4 8 10 5 4 3 9 15 6 4 7 7 7 7 8 7 8 9 9 10 10 11 10 10 9 9 9 10 13 17 19 21 24 26 27 29 30 32
2 4 2 8 7 2 7 5 13 14 5 6 1 5 15 11 6 6 7 5 5 4 4 4 5 6 8 9 9 9 9 11 13 17 21 25 28 31 33 34 36 36 35 35
1 2 3 5 2 3 6 10 11 14 11 14 14 17 1 1 4 5 5 4 3 2 1 2 4 7 8 10 11 12 14 17 20 24 25 26 28 30 32 33 33 33 33 35
3 3 2 4 1 6 7 7 13 7 8 6 6 1 3 2 5 5 5 5 4 3 3 5 8 11 11 12 13 16 18 20 25 27 27 29 30 30 29 31 31 32 31 30
4 2 2 5 3 3 1 3 3 7 6 17 5 3 4 1 3 4 4 5 5 7 9 10 10 12 13 15 17 19 21 22 23 25 24 26 26 27 28 28 28 28 27 25
2 2 2 3 4 7 2 5 7 6 5 18 13 6 6 5 1 6 8 8 10 11 12 12 13 15 15 14 15 15 15 16 16 20 21 21 22 22 23 23 23 22 21 20
3 1 3 1 4 3 1 4 7 3 4 7 15 11 8 10 3 2 15 15 15 15 15 15 14 14 14 13 14 14 15 15 16 17 18 18 18 18 18 18 18 18 17 16
4 4 8 8 5 8 2 9 9 1 4 7 21 20 21 8 3 12 22 21 19 17 16 15 14 14 14 13 13 13 13 14 14 15 15 15 14 14 14 14 14 14 13 12
7 8 5 5 5 7 9 7 5 2 2 10 19 27 30 18 10 23 24 24 23 21 20 18 17 16 16 15 15 15 15 14 14 14 13 12 11 11 11 10 10 9 9 8
4 5 3 8 5 1 22 5 12 2 2 7 22 25 29 23 17 27 27 25 24 22 21 20 19 19 19 19 18 16 15 14 13 12 11 10 9 9 9 9 8 7 6 5
6 7 4 2 3 12 23 29 29 15 9 5 14 19 28 27 20 27 27 27 27 27 26 24 24 22 21 20 19 18 17 16 15 14 13 12 11 10 9 8 8 8 6 5
1 9 5 7 14 19 27 27 24 29 25 16 12 19 26 29 24 28 29 31 30 29 28 28 27 25 24 23 21 20 18 16 15 14 13 12 11 11 11 10 10 9 9 9
10 8 6 8 11 7 6 6 8 13 26 30 19 22 25 29 28 28 31 31 32 32 31 30 29 27 26 24 23 21 20 19 18 18 17 16 15 15 14 14 14 13 13 12
Wind_Direction
185 253 235 286 245 298 288 280 286 297 8 311 276 284 282 281 267 251 261 290 310 317 315 313 313 313 312 306 302 294 283 274 289 285 275 234 209 249 234 232 235 242 242 230
227 245 62 99 251 265 275 283 295 317 189 323 296 288 286 276 252 247 268 297 315 317 316 317 316 315 312 311 308 301 284 273 275 277 269 254 218 197 197 228 224 233 242 236
253 359 140 242 267 277 279 277 303 298 319 278 306 272 200 250 194 208 240 315 319 314 314 316 316 315 315 313 309 310 295 281 278 274 275 255 238 248 235 232 235 224 234 243
261 91 235 259 276 264 290 37 306 307 327 307 19 296 231 172 212 214 244 328 322 315 314 314 315 315 315 315 317 315 306 288 275 271 270 255 231 219 204 203 204 221 244 244
32 227 241 272 266 168 260 325 301 314 271 320 150 254 222 171 238 227 268 326 324 316 315 317 316 316 317 319 324 321 317 299 282 267 263 252 227 231 226 238 236 241 253 252
262 344 244 264 289 251 297 301 301 166 311 263 162 245 275 166 355 264 313 325 321 315 315 316 318 320 321 327 334 331 318 304 295 267 254 246 237 233 226 235 242 254 261 263
177 208 139 315 289 198 328 297 313 278 234 306 166 254 292 106 108 308 313 315 314 312 316 319 323 325 326 328 333 336 329 316 299 266 241 241 232 227 230 238 246 254 255 262
264 237 181 53 57 327 12 304 32 299 313 308 196 245 357 106 164 290 288 307 304 311 314 318 322 324 324 325 328 333 333 329 323 286 217 226 221 218 219 227 230 237 251 252
260 229 119 82 80 238 86 241 50 273 117 275 235 243 134 166 229 328 322 312 307 309 311 319 325 327 328 328 332 336 338 344 342 338 233 217 213 212 208 208 220 235 243 235
65 282 168 123 131 116 280 140 214 148 310 302 304 296 275 226 327 317 321 311 308 308 315 326 330 333 333 337 343 343 348 354 358 346 270 233 208 204 199 199 201 211 221 220
161 246 132 155 193 159 156 217 195 294 232 298 311 312 95 179 318 305 307 307 304 312 324 333 339 338 344 349 355 357 1 5 11 14 11 236 198 189 192 193 186 187 182 177
155 298 261 229 107 21 294 277 228 237 158 231 281 275 125 184 298 292 300 302 307 318 329 339 339 345 350 357 1 5 13 20 25 32 50 96 137 151 162 163 161 154 151 144
166 194 293 186 140 154 228 193 223 97 47 229 256 288 160 241 282 298 290 303 318 325 337 348 352 355 2 2 6 11 19 39 54 66 82 99 110 118 121 124 130 132 133 133
168 271 254 268 5 16 214 196 199 214 220 180 237 288 273 343 306 316 302 314 326 333 344 348 357 0 10 10 19 27 41 61 81 100 111 113 113 113 111 110 113 115 116 116
286 271 294 273 276 228 258 221 196 207 245 233 10 264 297 316 302 316 308 324 330 344 347 339 6 21 33 34 45 56 74 92 103 109 112 112 115 115 114 114 113 112 112 111
148 287 332 275 102 211 271 233 210 225 250 260 276 285 310 22 291 282 283 269 245 230 222 52 60 68 68 69 74 85 94 101 106 107 104 106 109 110 108 106 103 99 99 101
204 275 297 275 251 298 267 217 182 187 205 200 206 206 163 241 248 267 247 240 240 207 138 118 106 97 89 89 92 98 101 106 107 106 108 108 107 109 110 109 110 110 110 111
183 215 273 290 306 259 9 55 169 218 223 213 263 226 186 202 194 241 232 198 185 162 148 137 125 114 109 111 111 113 115 120 119 120 119 120 121 120 120 118 115 114 114 115
233 241 263 284 288 301 200 188 172 185 284 204 202 173 185 189 204 255 209 186 169 162 147 133 121 115 114 110 111 115 118 117 114 111 113 115 116 118 117 116 116 116 116 115
162 139 260 228 270 268 304 155 179 178 284 166 173 170 163 170 206 198 187 175 161 150 140 133 132 132 129 132 134 135 134 132 128 123 121 123 123 122 121 121 121 120 120 119
177 195 221 220 270 280 137 148 162 223 254 164 180 174 163 192 233 169 168 168 162 156 155 153 149 147 149 152 152 149 146 142 138 133 131 131 131 129 126 125 123 119 116 111
186 167 193 186 228 278 143 129 197 200 143 179 179 188 189 194 185 171 173 173 174 171 169 167 166 168 169 169 168 164 161 157 153 149 146 146 147 146 142 133 126 125 125 123
241 226 197 214 226 146 196 269 233 282 217 194 192 198 200 199 193 182 184 186 185 183 181 180 182 183 182 180 178 177 174 172 170 168 167 168 169 167 164 162 164 162 159 158
222 202 243 323 232 245 242 250 251 256 253 250 204 204 198 201 202 192 192 193 194 192 191 190 192 194 193 191 188 186 186 187 188 188 189 191 194 197 200 202 204 206 209 217
13 162 223 257 277 274 265 256 258 256 245 246 226 208 206 203 205 203 201 201 202 202 201 200 200 200 199 200 199 199 198 199 203 207 211 214 218 222 225 229 234 238 241 244
184 200 205 246 242 250 286 296 312 267 241 237 233 216 207 211 212 210 212 209 208 208 209 209 209 209 207 208 207 208 209 210 213 217 220 223 227 231 236 240 243 249 254 255